Voltar ao catálogo

COSMOS 1720

AtivoMilitarLEO
NORAD 16453·PAYLOAD·🇷🇺 Russia

Lançado Jan 9, 1986 de Plesetsk Cosmodrome

Loading…

Próximas Passagens (próximas 24 horas)

TLE

AtualizadoSource: Space-Track

Época: Sep 14, 2026, 23:35 UTC

1 16453U 86002E   26257.98265773  .00000006  00000-0  14158-3 0  9992
2 16453  73.9889 143.8739 0027682 155.5047 217.0222 12.50636970857355

Acompanhe COSMOS 1720 em tempo real com AllMySat

Download on the App Store